TimeCDT,TemperatureF,Dew PointF,Humidity,Sea Level PressureIn,VisibilityMPH,Wind Direction,Wind SpeedMPH,Gust SpeedMPH,PrecipitationIn,Events,Conditions,WindDirDegrees,DateUTC
12:53 AM,32.0,19.0,59,30.10,10.0,South,6.9,-,N/A,,Clear,190,2012-10-08 05:53:00
1:53 AM,32.0,21.0,64,30.10,10.0,South,9.2,-,N/A,,Clear,190,2012-10-08 06:53:00
2:53 AM,30.9,21.9,69,30.08,10.0,SSW,8.1,-,N/A,,Clear,200,2012-10-08 07:53:00
3:53 AM,30.9,21.9,69,30.07,10.0,South,9.2,-,N/A,,Clear,190,2012-10-08 08:53:00
4:53 AM,30.9,23.0,72,30.06,10.0,SSW,9.2,-,N/A,,Clear,200,2012-10-08 09:53:00
5:53 AM,30.0,23.0,75,30.07,10.0,South,8.1,-,N/A,,Clear,190,2012-10-08 10:53:00
6:53 AM,30.9,24.1,76,30.06,10.0,South,8.1,-,N/A,,Clear,190,2012-10-08 11:53:00
7:53 AM,33.1,26.1,75,30.07,10.0,South,12.7,-,N/A,,Clear,190,2012-10-08 12:53:00
8:53 AM,39.0,28.0,65,30.06,10.0,South,15.0,-,N/A,,Clear,190,2012-10-08 13:53:00
9:53 AM,46.0,30.0,54,30.05,10.0,South,16.1,-,N/A,,Clear,190,2012-10-08 14:53:00
10:53 AM,53.1,32.0,45,30.02,10.0,SSW,23.0,33.4,N/A,,Clear,200,2012-10-08 15:53:00
11:53 AM,57.0,33.1,40,29.99,10.0,SSW,23.0,33.4,N/A,,Clear,210,2012-10-08 16:53:00
12:53 PM,59.0,33.1,38,29.97,10.0,SSW,24.2,36.8,N/A,,Clear,200,2012-10-08 17:53:00
1:53 PM,60.1,33.1,36,29.94,10.0,SSW,25.3,34.5,N/A,,Clear,210,2012-10-08 18:53:00
2:53 PM,60.1,33.1,36,29.92,10.0,SSW,26.5,33.4,N/A,,Clear,200,2012-10-08 19:53:00
3:53 PM,60.1,32.0,35,29.90,10.0,SSW,21.9,35.7,N/A,,Clear,210,2012-10-08 20:53:00
4:53 PM,60.1,32.0,35,29.90,10.0,SSW,25.3,35.7,N/A,,Clear,200,2012-10-08 21:53:00
5:53 PM,57.0,30.9,37,29.89,10.0,SSW,20.7,27.6,N/A,,Clear,200,2012-10-08 22:53:00
6:53 PM,55.0,30.9,40,29.89,10.0,South,18.4,-,N/A,,Clear,190,2012-10-08 23:53:00
7:53 PM,54.0,30.0,40,29.91,10.0,South,19.6,-,N/A,,Partly Cloudy,190,2012-10-09 00:53:00
8:53 PM,53.6,30.2,41,29.89,10.0,South,23.0,27.6,N/A,,Mostly Cloudy,190,2012-10-09 01:53:00
9:53 PM,51.1,30.9,46,29.90,10.0,South,19.6,26.5,N/A,,Clear,190,2012-10-09 02:53:00
10:53 PM,51.1,32.0,48,29.89,10.0,SSW,20.7,-,N/A,,Clear,200,2012-10-09 03:53:00
11:53 PM,52.0,32.0,47,29.88,10.0,SSW,19.6,-,N/A,,Clear,210,2012-10-09 04:53:00